{"data":{"norad_id":69633,"epoch":"2026-06-19T11:16:19.091424Z","epoch_age_seconds":8067879,"freshness":"OLD","line1":"1 69633U 26128H   26170.46966541  .15785737  12228-4  41525-2 0  9994","line2":"2 69633  54.5181 290.8343 0024355   6.3989 353.7378 16.26843543  1465","mean_motion":16.26843543,"eccentricity":0.0024355,"inclination_deg":54.5181,"raan_deg":290.8343,"arg_perigee_deg":6.3989,"mean_anomaly_deg":353.7378,"bstar":0.0041525,"rev_number":146,"period_min":88.514965449262,"perigee_km":185.01257041687,"apogee_km":217.05972281404,"semimajor_km":6579.1731466155,"source":"CELESTRAK","updated_at":"2026-06-20T09:00:38.404417Z"}}